TimeEDT,TemperatureF,Dew PointF,Humidity,Sea Level PressureIn,VisibilityMPH,Wind Direction,Wind SpeedMPH,Gust SpeedMPH,PrecipitationIn,Events,Conditions,WindDirDegrees,DateUTC
12:54 AM,57.0,57.0,100,30.06,8.0,Calm,Calm,-,N/A,,Clear,0,2012-10-26 04:54:00
2:54 AM,55.9,55.0,97,30.05,4.0,Calm,Calm,-,N/A,,Clear,0,2012-10-26 06:54:00
3:16 AM,55.9,55.0,97,30.07,3.0,Calm,Calm,-,N/A,,Scattered Clouds,0,2012-10-26 07:16:00
3:23 AM,55.9,55.0,97,30.07,2.0,Calm,Calm,-,N/A,,Partly Cloudy,0,2012-10-26 07:23:00
3:41 AM,55.9,55.0,97,30.07,5.0,Calm,Calm,-,N/A,,Partly Cloudy,0,2012-10-26 07:41:00
3:54 AM,55.0,55.0,100,30.04,5.0,Calm,Calm,-,N/A,,Clear,0,2012-10-26 07:54:00
3:57 AM,55.0,55.0,100,30.06,1.5,Calm,Calm,-,N/A,,Clear,0,2012-10-26 07:57:00
4:09 AM,54.0,54.0,100,30.07,0.5,Calm,Calm,-,N/A,Fog,Fog,0,2012-10-26 08:09:00
4:20 AM,54.0,54.0,100,30.06,1.0,Calm,Calm,-,N/A,,Clear,0,2012-10-26 08:20:00
4:28 AM,54.0,54.0,100,30.07,0.5,Calm,Calm,-,N/A,Fog,Fog,0,2012-10-26 08:28:00
4:38 AM,54.0,54.0,100,30.07,1.0,Calm,Calm,-,N/A,,Clear,0,2012-10-26 08:38:00
4:54 AM,55.0,54.0,96,30.05,1.0,Calm,Calm,-,N/A,,Mist,0,2012-10-26 08:54:00
5:05 AM,54.0,54.0,100,30.08,2.0,Calm,Calm,-,N/A,,Scattered Clouds,0,2012-10-26 09:05:00
5:19 AM,54.0,54.0,100,30.08,1.5,North,3.5,-,N/A,,Scattered Clouds,360,2012-10-26 09:19:00
5:24 AM,53.1,53.1,100,30.08,3.0,Calm,Calm,-,N/A,,Partly Cloudy,0,2012-10-26 09:24:00
5:33 AM,53.1,53.1,100,30.08,1.5,NNE,3.5,-,N/A,,Partly Cloudy,20,2012-10-26 09:33:00
5:44 AM,53.1,53.1,100,30.09,0.8,NNE,4.6,-,N/A,,Mist,20,2012-10-26 09:44:00
5:51 AM,53.6,53.6,100,30.09,0.2,NNE,4.6,-,N/A,Fog,Fog,20,2012-10-26 09:51:00
5:54 AM,54.0,54.0,100,30.07,0.2,NNE,4.6,-,N/A,Fog,Fog,20,2012-10-26 09:54:00
6:04 AM,55.9,55.9,100,30.09,1.0,NNE,4.6,-,N/A,,Mist,20,2012-10-26 10:04:00
6:23 AM,55.0,55.0,100,30.09,2.0,North,3.5,-,N/A,,Clear,360,2012-10-26 10:23:00
6:42 AM,54.0,54.0,100,30.08,3.0,North,3.5,-,N/A,,Clear,360,2012-10-26 10:42:00
6:54 AM,54.0,54.0,100,30.08,3.0,North,4.6,-,N/A,,Clear,350,2012-10-26 10:54:00
7:05 AM,53.1,53.1,100,30.08,2.5,North,3.5,-,N/A,,Clear,350,2012-10-26 11:05:00
7:46 AM,54.0,54.0,100,30.08,0.8,North,4.6,-,N/A,,Clear,10,2012-10-26 11:46:00
7:54 AM,54.0,54.0,100,30.08,0.8,North,3.5,-,N/A,,Clear,350,2012-10-26 11:54:00
7:58 AM,55.0,55.0,100,30.09,2.5,Calm,Calm,-,N/A,,Clear,0,2012-10-26 11:58:00
8:06 AM,55.0,55.0,100,30.09,3.0,Calm,Calm,-,N/A,,Clear,0,2012-10-26 12:06:00
8:13 AM,55.9,55.9,100,30.09,2.0,NNE,3.5,-,N/A,,Clear,20,2012-10-26 12:13:00
8:25 AM,57.0,57.0,100,30.10,3.0,NNE,3.5,-,N/A,,Clear,20,2012-10-26 12:25:00
8:54 AM,62.1,60.1,93,30.09,6.0,NE,3.5,-,N/A,,Clear,40,2012-10-26 12:54:00
9:54 AM,66.0,61.0,84,30.09,9.0,NNE,5.8,-,N/A,,Clear,30,2012-10-26 13:54:00
10:54 AM,70.0,61.0,73,30.08,10.0,Variable,5.8,-,N/A,,Clear,0,2012-10-26 14:54:00
11:54 AM,75.0,60.1,60,30.06,10.0,NNE,8.1,-,N/A,,Clear,30,2012-10-26 15:54:00
12:54 PM,75.9,57.9,54,30.03,10.0,ENE,9.2,-,N/A,,Clear,60,2012-10-26 16:54:00
1:54 PM,75.9,55.9,50,30.00,10.0,ENE,9.2,16.1,N/A,,Clear,60,2012-10-26 17:54:00
2:54 PM,77.0,55.0,47,29.97,10.0,NE,9.2,-,N/A,,Clear,40,2012-10-26 18:54:00
3:54 PM,77.0,54.0,45,29.96,10.0,Variable,5.8,-,N/A,,Clear,0,2012-10-26 19:54:00
4:54 PM,75.9,53.1,45,29.95,10.0,Variable,4.6,-,N/A,,Clear,0,2012-10-26 20:54:00
5:54 PM,72.0,55.0,55,29.96,10.0,Variable,4.6,-,N/A,,Clear,0,2012-10-26 21:54:00
6:54 PM,69.1,55.0,61,29.96,10.0,Variable,3.5,-,N/A,,Clear,0,2012-10-26 22:54:00
7:54 PM,66.0,55.9,70,29.97,10.0,Variable,4.6,-,N/A,,Clear,0,2012-10-26 23:54:00
8:54 PM,64.9,57.9,78,29.96,9.0,NE,4.6,-,N/A,,Clear,50,2012-10-27 00:54:00
9:54 PM,64.9,57.9,78,29.96,8.0,NE,5.8,-,N/A,,Clear,40,2012-10-27 01:54:00
10:54 PM,64.0,57.9,80,29.95,8.0,NE,5.8,-,N/A,,Clear,40,2012-10-27 02:54:00
11:54 PM,61.0,57.9,90,29.92,7.0,NNE,9.2,-,N/A,,Clear,20,2012-10-27 03:54:00